Overview Statistics Trail Chart Weather Telemetry Raw packets
 

This is the latest recevied weather packets stored in our database for station/object KQ7A. If no packets are shown the sender has not sent any weather packets the latest 10 day(s).

<< 28 29 30 31 32 33 34 >>
Time Temp. Humidity Pressure Rain* Wind** Luminosity Snow
1788487933 17.22° C 43% 1012.9 hPa 0 mm - 6 W/m² -
1788487628 17.22° C 43% 1013 hPa 0 mm - 8 W/m² -
1788487328 17.22° C 44% 1012.9 hPa 0 mm - 10 W/m² -
1788487026 17.78° C 44% 1013 hPa 0 mm - 12 W/m² -
1788486721 17.78° C 43% 1012.8 hPa 0 mm - 14 W/m² -
1788486420 17.78° C 43% 1013 hPa 0 mm - 18 W/m² -
1788486115 17.78° C 43% 1012.6 hPa 0 mm - 19 W/m² -
1788485812 17.78° C 42% 1012.8 hPa 0 mm - 26 W/m² -
1788485507 17.78° C 41% 1012.9 hPa 0 mm - 32 W/m² -
1788485203 17.78° C 42% 1013.2 hPa 0 mm - 34 W/m² -
1788484902 17.78° C 41% 1013.1 hPa 0 mm - 34 W/m² -
1788484601 17.78° C 41% 1013.2 hPa 0 mm - 31 W/m² -
1788484297 18.33° C 40% 1013 hPa 0 mm - 35 W/m² -
1788483993 18.33° C 41% 1013 hPa 0 mm - 48 W/m² -
1788483689 18.33° C 41% 1012.9 hPa 0 mm - 56 W/m² -
1788483384 18.33° C 41% 1012.9 hPa 0 mm - 62 W/m² -
1788483079 18.33° C 41% 1013 hPa 0 mm - 59 W/m² -
1788482775 18.33° C 40% 1013.2 hPa 0 mm - 61 W/m² -
1788482474 18.33° C 41% 1013 hPa 0 mm - 76 W/m² -
1788482171 18.33° C 41% 1013 hPa 0 mm - 95 W/m² -
1788481866 18.33° C 41% 1013.5 hPa 0 mm - 110 W/m² -
1788481562 18.33° C 41% 1013.5 hPa 0 mm - 116 W/m² -
1788481256 18.89° C 41% 1013.2 hPa 0 mm - 125 W/m² -
1788480952 18.33° C 42% 1013.2 hPa 0 mm - 139 W/m² -
1788480651 18.33° C 41% 1013.1 hPa 0 mm - 132 W/m² -

* Rain latest hour (hover to see other rain measurements)
** Current wind speed in m/s (hover to see current wind gust speed)